www.pogodaiklimat.ru

Погода и климат >> Архив погоды >> Канада >> Vancouver


АРХИВ ПОГОДЫ в Vancouver

Время (UTC), дата Ветер
(напр.,м/с)
 
Видим.   Явления Облачность Т
(С)
Тd
(С)
f
(%)
Тe
(С)
Тes
(С)
Комфортность P
(гПа)
Po
(гПа)
Тmin
(С)
Tmax
(С)
R
(мм)
R24
(мм)
S
(см)
12 11.10 СВ 2 30 км 1/0
[Ci fib]
+6.5 +6.0 97 +4 +4 прохладно 1019.9 1019.4 +5.2 +14.1
15 11.10 С 1 19 км 10/10 50 м
[]
+6.6 +6.3 98 +6 +6 прохладно 1020.8 1020.3
18 11.10 ЮЗ 2 45 км 9/1 200 м
[Cu hum Ac As Cc]
+11.4 +10.1 92 +11 +13 по сезону 1021.4 1020.9 +5.2 +11.8
21 11.10 ЮЗ 3 45 км 4/4 600 м
[]
+12.9 +8.8 76 +12 +15 по сезону 1021.0 1020.5
00 12.10 З 3 45 км 4/1 1000 м
[Cu hum Ac trans Ci fib]
+12.6 +9.4 81 +11 +12 по сезону 1019.9 1019.4 +5.2 +13.7
03 12.10 СЗ 2 30 км 9/0
[]
+9.2 +8.3 94 +7 +7 прохладно 1019.7 1019.2
06 12.10 ЮВ 1 30 км 10/1 1500 м
[Sc Ac As]
+11.1 +8.8 86 +11 +11 тепло 1019.9 1019.4 +5.2 +13.7
09 12.10 В 3 30 км 9/0
[]
+9.0 +7.9 93 +7 +7 по сезону 1020.2 1019.7
12 12.10 В 2 30 км 3/0
[Ci fib]
+7.9 +6.8 93 +6 +6 по сезону 1019.6 1019.1 +7.7 +13.7
15 12.10 В 1 45 км 3/3 1500 м
[]
+7.0 +6.6 97 +6 +6 прохладно 1020.3 1019.8
18 12.10 СЗ 3 30 км 6/6 300 м
[Cu Sc]
+12.5 +10.0 85 +11 +13 по сезону 1021.0 1020.5 +5.0 +12.7
21 12.10 З 4 30 км 9/9 200 м
[]
+13.3 +10.7 84 +12 +12 по сезону 1020.0 1019.5
00 13.10 СЗ 2 45 км 1/1 600 м
[Cu hum]
+14.0 +10.1 77 +13 +14 по сезону 1018.7 1018.2 +5.0 +14.9
03 13.10 В 4 30 км 3/0
[]
+9.8 +8.0 89 +7 +7 прохладно 1019.5 1019.0
06 13.10 З 1 30 км 3/0
[Ci fib]
+7.4 +6.9 97 +6 +6 по сезону 1021.6 1021.1 +5.0 +14.9
09 13.10 СЗ 4 30 км 3/0
[]
+5.4 +5.0 97 +1 +1 холодно 1023.2 1022.7
12 13.10 С 3 30 км ясно +5.3 +5.1 99 +2 +2 прохладно 1024.3 1023.8 +3.8 +14.9
15 13.10 СЗ 4 45 км ясно +9.0 +8.3 95 +6 +6 прохладно 1026.0 1025.5
18 13.10 СЗ 6 45 км ясно +12.0 +9.5 85 +9 +11 по сезону 1027.2 1026.7 +3.8 +12.2
21 13.10 З 5 45 км ясно +13.4 +9.9 79 +11 +14 по сезону 1027.2 1026.7
00 14.10 СЗ 4 45 км ясно +13.2 +9.8 80 +12 +12 по сезону 1026.8 1026.3 +3.8 +14.3
03 14.10 СЗ 2 45 км ясно +7.9 +7.2 95 +6 +6 прохладно 1027.0 1026.5
06 14.10 С 1 30 км 3/0
[Ci fib]
+6.9 +5.1 88 +7 +7 по сезону 1028.1 1027.6 +3.8 +14.3
09 14.10 штиль 0 30 км 1/0
[]
+5.0 +2.7 85 +4 +4 прохладно 1029.0 1028.5
12 14.10 С 2 30 км 1/0
[Ci fib]
+4.0 +2.8 92 +2 +2 прохладно 1029.3 1028.8 +1.9 +14.3
15 14.10 В 1 45 км ясно +3.9 +1.3 83 +2 +2 холодно 1029.7 1029.2
18 14.10 Ю 4 45 км 1/0
[Ci fib]
+12.4 +5.6 63 +11 +13 по сезону 1030.5 1030.0 +1.9 +12.8
21 14.10 СЗ 4 45 км 3/0
[]
+13.7 +7.7 67 +12 +16 по сезону 1030.0 1029.5
00 15.10 СЗ 2 45 км 4/0
[Ci fib]
+13.5 +7.5 67 +13 +14 по сезону 1029.1 1028.6 +1.9 +14.4
03 15.10 СЗ 2 45 км ясно +8.8 +3.6 70 +7 +7 прохладно 1028.6 1028.1
06 15.10 С 1 45 км ясно +5.6 +3.0 83 +6 +6 по сезону 1029.2 1028.7 +1.9 +14.4
09 15.10 СВ 1 30 км ясно +5.9 +2.9 81 +5 +5 по сезону 1029.3 1028.8
12 15.10 В 2 30 км ясно +4.9 +3.2 89 +3 +3 прохладно 1029.2 1028.7 +3.0 +14.4
15 15.10 В 2 45 км 4/4 600 м
[]
+5.8 +4.7 93 +3 +3 холодно 1029.2 1028.7
18 15.10 З 2 45 км 5/0
[Ci fib]
+12.5 +7.1 70 +12 +15 по сезону 1029.5 1029.0 +2.8 +12.6
21 15.10 СЗ 5 45 км 4/0
[]
+13.4 +9.8 79 +12 +14 по сезону 1028.5 1028.0
00 16.10 СЗ 3 45 км 3/0
[Ci fib]
+13.1 +9.3 78 +12 +13 по сезону 1027.1 1026.6 +2.8 +13.8
03 16.10 З 2 30 км ясно +9.7 +9.2 97 +8 +8 по сезону 1026.8 1026.3
06 16.10 С 1 45 км 1/0
[Ci fib]
+6.7 +6.1 96 +7 +7 по сезону 1027.3 1026.8 +2.8 +13.8
09 16.10 С 1 30 км 1/0
[]
+6.3 +5.8 97 +6 +6 по сезону 1027.6 1027.1
12 16.10 С 1 30 км местами туман поземный ясно +5.4 +5.0 97 +5 +5 по сезону 1027.5 1027.0 +4.0 +13.8
15 16.10 С 1 45 км ясно +5.2 +4.9 98 +5 +5 прохладно 1027.5 1027.0
18 16.10 З 3 45 км ясно +12.3 +9.8 85 +11 +13 по сезону 1027.6 1027.1 +3.1 +12.5
21 16.10 З 3 45 км ясно +14.4 +10.1 75 +13 +18 тепло 1026.0 1025.5
00 17.10 СЗ 4 45 км ясно +13.3 +10.1 81 +12 +12 по сезону 1024.5 1024.0 +3.1 +14.8
03 17.10 ЮЗ 2 30 км 1/0
[]
+9.5 +8.7 95 +8 +8 по сезону 1024.0 1023.5
06 17.10 СЗ 2 30 км местами туман поземный 3/0
[Ci fib]
+7.8 +7.6 99 +6 +6 по сезону 1024.4 1023.9 +3.1 +14.8
09 17.10 СВ 1 30 км 1/0
[]
+6.0 +5.3 95 +5 +5 по сезону 1023.9 1023.4
12 17.10 В 2 30 км ясно +4.7 +4.2 97 +2 +2 прохладно 1023.4 1022.9 +3.3 +14.8
15 17.10 В 2 45 км 4/0
[]
+6.1 +5.8 98 +4 +4 прохладно 1022.9 1022.4
18 17.10 З 1 45 км 8/0
[Cs]
+13.2 +9.4 78 +13 +17 тепло 1023.0 1022.5 +3.1 +13.3
21 17.10 ЮЗ 2 45 км 8/0
[]
+14.3 +10.0 75 +14 +17 тепло 1021.2 1020.7
00 18.10 З 2 45 км 1/0
[Cs]
+14.3 +9.8 74 +14 +15 тепло 1019.6 1019.1 +3.1 +15.3
03 18.10 З 2 30 км 3/0
[]
+9.4 +9.0 97 +8 +8 по сезону 1019.3 1018.8
06 18.10 З 2 30 км местами туман поземный 6/0
[Cs]
+7.8 +7.0 95 +6 +6 по сезону 1019.6 1019.1 +3.1 +15.3
09 18.10 штиль 0 30 км ясно +7.2 +6.8 97 +6 +6 по сезону 1020.2 1019.7

 

Местоположение метеостанции Vancouver (Канада): широта 49.20 долгота -123.10 высота над уровнем моря 4 м.

В архиве по умолчанию представлена погода в Vancouver за последнюю неделю. Архивные данные за месяц целиком и за предыдущие месяцы, начиная с января 2011 года, Вы можете получить, выбрав интересующий диапазон дат из раскрывающегося списка и нажав кнопку "Ввод!".


*Определитесь, кто Вы:
робот инопланетянин человек

Внимание! Время в таблицах - всемирное. Для получения местного времени необходимо прибавить поправку, которая в Vancouver равна -8 ч.

Смотрите также архив погоды в соседних городах и на ближайших метеорологических станциях:

Погода в Richmond (Канада) (3 км)
Погода в Vancouver Hillcrest (Канада) (3 км)
Погода в Vancouver Sea Island Ccg (Канада) (7 км)
Погода в Vancouver (aut) (Канада) (11 км)
Погода в West Vancouver Camp (Канада) (14 км)
Погода в Point Atkinson (Канада) (17 км)
Погода в Sand Heads (Канада) (18 км)
Погода в Cypress Bowl South (Канада) (21 км)
Погода в Cypress Bowl North (Канада) (23 км)
Погода в Howe Sound (Канада) (32 км)

Пояснения к столбцам:

Ветер - указаны скорость ветра в м/с - средняя за 10 мин, порывы в срок и между сроками (в фигурных скобках) и направление, откуда дует ветер: С - северный, СВ - северо-восточный, В - восточный, ЮВ - юго-восточный, Ю - южный, ЮЗ - юго-западный, З - западный, СЗ - северо-западный.
Видимость - горизонтальная дальность видимости в метрах или километрах. При видимости от 1 до 10 км при отсутствии осадков обычно наблюдается дымка, при ухудшении видимости до 1 км и менее - туман. В сухую погоду видимость может ухудшаться дымом, пылью или мглою.
Явления - указаны атмосферные явления, наблюдавшиеся в срок или в последний час перед сроком; фигурными скобками обозначены явления, наблюдавшиеся между сроками (за 1-3 часа до срока); квадратными скобками обозначены град или гололедные отложения с указанием их диаметра в мм.
Облачность - указаны через наклонную черту общая и нижняя облачность в баллах и высота нижней границы облаков в метрах; квадратными скобками обозначены формы облаков: Ci - перистые, Cs - перисто-слоистые, Cc - перисто-кучевые, Ac - высококучевые, As - высокослоистые, Sc - слоисто-кучевые, Ns - слоисто-дождевые, Cu - кучевые, Cb - кучево-дождевые. Подробнее классификацию облаков см. в Атласе облаков (PDF).
T - Температура воздуха - температура, измеренная на высоте 2 м над землей.
Td - Температура точки росы - температура, при понижении до которой содержащийся в воздухе водяной пар достигнет насыщения.
f - Относительная влажность воздуха - влажноcть воздуха, измеренная на высоте 2 м над землей.
Te - Эффективная температура - температура, которую ощущает одетый по сезону человек в тени. Характеристика душности погоды. При расчете учитывается влияние влажности воздуха и скорости ветра на теплоощущения человека.
Tes - Эффективная температура на солнце - температура, которую ощущает человек, с поправкой на солнечный нагрев. Характеристика знойности погоды. Зависит от высоты солнца над горизонтом, облачности и скорости ветра. Ночью, в пасмурную погоду, а также при ветре 12 м/с и более поправка равна нулю.
P - Атмосферное давление - приведенное к уровню моря атмосферное давление.
Po - Атмосферное давление - измеренное на уровне метеостанции атмосферное давление.
Tmin - Минимальная температура - минимум температуры воздуха на высоте 2 м над землей.
Tmax - Максимальная температура - максимум температуры воздуха на высоте 2 м над землей.
R - Количество осадков - Количество выпавших осадков за период времени, мм. При наведении курсора мыши на число - период времени, за который выпало указанное количество осадков.
R24 - Количество осадков - Количество выпавших осадков за 24 часа, мм.
S - Снежный покров - Высота снежного покрова, см. При наведении курсора мыши на число - состояние снежного покрова и степень покрытия местности в баллах.